Time,TemperatureF,DewpointF,PressureIn,WindDirection,WindDirectionDegrees,WindSpeedMPH,WindSpeedGustMPH,Humidity,HourlyPrecipIn,Conditions,Clouds,dailyrainin,SoftwareType,DateUTC
2013-04-14 00:10:00,42.7,35.0,29.99,WNW,300,5.0,10.0,73,0.00,,,0.00,weatherlink.com 1.10,2013-04-14 04:10:00,
2013-04-14 00:25:00,42.2,35.0,30.00,WNW,295,4.0,9.0,75,0.00,,,0.00,weatherlink.com 1.10,2013-04-14 04:25:00,
2013-04-14 00:40:00,41.5,34.0,30.00,WNW,294,2.0,8.0,75,0.00,,,0.00,weatherlink.com 1.10,2013-04-14 04:40:00,
2013-04-14 00:55:00,41.2,34.0,30.01,WNW,288,3.0,7.0,76,0.00,,,0.00,weatherlink.com 1.10,2013-04-14 04:55:00,
2013-04-14 01:10:00,41.3,34.0,30.01,WNW,285,4.0,7.0,76,0.00,,,0.00,weatherlink.com 1.10,2013-04-14 05:10:00,
2013-04-14 01:25:00,41.1,32.0,30.02,WNW,291,2.0,8.0,71,0.00,,,0.00,weatherlink.com 1.10,2013-04-14 05:25:00,
2013-04-14 01:40:00,40.7,31.0,30.02,West,271,3.0,10.0,69,0.00,,,0.00,weatherlink.com 1.10,2013-04-14 05:40:00,
2013-04-14 01:55:00,40.4,31.0,30.02,WNW,285,6.0,7.0,68,0.00,,,0.00,weatherlink.com 1.10,2013-04-14 05:55:00,
2013-04-14 02:10:00,40.1,30.0,30.02,West,277,2.0,7.0,67,0.00,,,0.00,weatherlink.com 1.10,2013-04-14 06:10:00,
2013-04-14 02:26:00,39.8,30.0,30.02,WNW,285,2.0,5.0,68,0.00,,,0.00,weatherlink.com 1.10,2013-04-14 06:26:00,
2013-04-14 02:41:00,39.3,29.0,30.02,WNW,288,3.0,6.0,66,0.00,,,0.00,weatherlink.com 1.10,2013-04-14 06:41:00,
2013-04-14 02:56:00,38.8,28.0,30.02,West,278,1.0,5.0,65,0.00,,,0.00,weatherlink.com 1.10,2013-04-14 06:56:00,
2013-04-14 03:11:00,38.3,28.0,30.02,WNW,288,0.0,5.0,67,0.00,,,0.00,weatherlink.com 1.10,2013-04-14 07:11:00,
2013-04-14 03:26:00,37.7,29.0,30.02,WNW,291,0.0,1.0,70,0.00,,,0.00,weatherlink.com 1.10,2013-04-14 07:26:00,
2013-04-14 03:41:00,37.9,29.0,30.03,WNW,291,0.0,1.0,70,0.00,,,0.00,weatherlink.com 1.10,2013-04-14 07:41:00,
2013-04-14 03:56:00,38.1,28.0,30.04,NW,304,0.0,3.0,68,0.00,,,0.00,weatherlink.com 1.10,2013-04-14 07:56:00,
2013-04-14 04:26:00,36.4,28.0,30.04,SW,217,0.0,1.0,72,0.00,,,0.00,weatherlink.com 1.10,2013-04-14 08:26:00,
2013-04-14 04:56:00,34.0,27.0,30.05,WSW,250,0.0,0.0,76,0.00,,,0.00,weatherlink.com 1.10,2013-04-14 08:56:00,
2013-04-14 05:11:00,33.0,27.0,30.05,WSW,250,0.0,1.0,77,0.00,,,0.00,weatherlink.com 1.10,2013-04-14 09:11:00,
2013-04-14 05:26:00,32.1,26.0,30.06,WSW,250,0.0,0.0,79,0.00,,,0.00,weatherlink.com 1.10,2013-04-14 09:26:00,
2013-04-14 05:56:00,30.5,26.0,30.06,WSW,250,0.0,0.0,83,0.00,,,0.00,weatherlink.com 1.10,2013-04-14 09:56:00,
2013-04-14 06:11:00,30.0,26.0,30.06,WSW,250,0.0,0.0,85,0.00,,,0.00,weatherlink.com 1.10,2013-04-14 10:11:00,
2013-04-14 06:26:00,29.3,25.0,30.06,WSW,249,0.0,0.0,85,0.00,,,0.00,weatherlink.com 1.10,2013-04-14 10:26:00,
2013-04-14 06:41:00,29.0,25.0,30.07,WSW,250,0.0,0.0,86,0.00,,,0.00,weatherlink.com 1.10,2013-04-14 10:41:00,
2013-04-14 06:56:00,28.6,25.0,30.07,WSW,249,0.0,0.0,87,0.00,,,0.00,weatherlink.com 1.10,2013-04-14 10:56:00,
2013-04-14 07:11:00,29.0,26.0,30.08,WSW,250,0.0,0.0,88,0.00,,,0.00,weatherlink.com 1.10,2013-04-14 11:11:00,
2013-04-14 07:26:00,29.6,27.0,30.08,WSW,250,0.0,0.0,89,0.00,,,0.00,weatherlink.com 1.10,2013-04-14 11:26:00,
2013-04-14 07:41:00,31.4,29.0,30.09,WSW,250,0.0,0.0,89,0.00,,,0.00,weatherlink.com 1.10,2013-04-14 11:41:00,
2013-04-14 07:56:00,33.3,30.0,30.10,WSW,250,0.0,0.0,89,0.00,,,0.00,weatherlink.com 1.10,2013-04-14 11:56:00,
2013-04-14 08:12:00,36.7,32.0,30.10,WSW,250,0.0,1.0,84,0.00,,,0.00,weatherlink.com 1.10,2013-04-14 12:12:00,
2013-04-14 08:27:00,37.7,30.0,30.11,WSW,246,3.0,4.0,75,0.00,,,0.00,weatherlink.com 1.10,2013-04-14 12:27:00,
2013-04-14 08:42:00,39.7,32.0,30.11,SSE,161,0.0,5.0,74,0.00,,,0.00,weatherlink.com 1.10,2013-04-14 12:42:00,
2013-04-14 08:57:00,40.8,31.0,30.12,WSW,251,1.0,5.0,67,0.00,,,0.00,weatherlink.com 1.10,2013-04-14 12:57:00,
2013-04-14 09:12:00,42.0,30.0,30.12,SSW,199,0.0,6.0,63,0.00,,,0.00,weatherlink.com 1.10,2013-04-14 13:12:00,
2013-04-14 09:27:00,43.1,30.0,30.11,WSW,250,1.0,3.0,61,0.00,,,0.00,weatherlink.com 1.10,2013-04-14 13:27:00,
2013-04-14 09:42:00,43.9,28.0,30.12,SE,124,0.0,6.0,55,0.00,,,0.00,weatherlink.com 1.10,2013-04-14 13:42:00,
2013-04-14 09:57:00,44.7,30.0,30.13,WNW,301,5.0,8.0,56,0.00,,,0.00,weatherlink.com 1.10,2013-04-14 13:57:00,
2013-04-14 10:12:00,45.3,30.0,30.15,South,181,3.0,7.0,55,0.00,,,0.00,weatherlink.com 1.10,2013-04-14 14:12:00,
2013-04-14 10:27:00,46.2,31.0,30.14,SW,235,0.0,9.0,55,0.00,,,0.00,weatherlink.com 1.10,2013-04-14 14:27:00,
2013-04-14 10:42:00,46.8,31.0,30.13,West,269,1.0,8.0,54,0.00,,,0.00,weatherlink.com 1.10,2013-04-14 14:42:00,
2013-04-14 10:57:00,47.7,32.0,30.13,South,187,3.0,5.0,54,0.00,,,0.00,weatherlink.com 1.10,2013-04-14 14:57:00,
2013-04-14 11:12:00,48.3,32.0,30.13,SSE,148,0.0,10.0,53,0.00,,,0.00,weatherlink.com 1.10,2013-04-14 15:12:00,
2013-04-14 11:27:00,49.4,32.0,30.13,NW,304,3.0,7.0,51,0.00,,,0.00,weatherlink.com 1.10,2013-04-14 15:27:00,
2013-04-14 11:42:00,49.9,32.0,30.13,SW,221,2.0,7.0,50,0.00,,,0.00,weatherlink.com 1.10,2013-04-14 15:42:00,
2013-04-14 11:57:00,50.8,32.0,30.11,WNW,299,2.0,9.0,49,0.00,,,0.00,weatherlink.com 1.10,2013-04-14 15:57:00,
2013-04-14 12:27:00,52.4,34.0,30.11,WNW,294,7.0,8.0,49,0.00,,,0.00,weatherlink.com 1.10,2013-04-14 16:27:00,
2013-04-14 12:42:00,52.3,32.0,30.10,WSW,248,1.0,7.0,47,0.00,,,0.00,weatherlink.com 1.10,2013-04-14 16:42:00,
2013-04-14 12:57:00,53.0,33.0,30.10,North,8,1.0,5.0,46,0.00,,,0.00,weatherlink.com 1.10,2013-04-14 16:57:00,
2013-04-14 13:12:00,54.0,34.0,30.09,NE,49,2.0,5.0,48,0.00,,,0.00,weatherlink.com 1.10,2013-04-14 17:12:00,
2013-04-14 13:27:00,54.5,34.0,30.09,SSE,156,0.0,5.0,46,0.00,,,0.00,weatherlink.com 1.10,2013-04-14 17:27:00,
2013-04-14 13:42:00,55.0,33.0,30.08,NNE,19,0.0,7.0,43,0.00,,,0.00,weatherlink.com 1.10,2013-04-14 17:42:00,
2013-04-14 13:57:00,55.9,34.0,30.08,WNW,285,5.0,7.0,44,0.00,,,0.00,weatherlink.com 1.10,2013-04-14 17:57:00,
2013-04-14 14:12:00,56.3,34.0,30.09,WNW,288,4.0,6.0,43,0.00,,,0.00,weatherlink.com 1.10,2013-04-14 18:12:00,
2013-04-14 14:27:00,57.1,34.0,30.08,WSW,239,6.0,7.0,42,0.00,,,0.00,weatherlink.com 1.10,2013-04-14 18:27:00,
2013-04-14 14:42:00,57.1,33.0,30.08,SW,232,0.0,8.0,40,0.00,,,0.00,weatherlink.com 1.10,2013-04-14 18:42:00,
2013-04-14 14:58:00,58.4,34.0,30.08,NNE,20,2.0,7.0,40,0.00,,,0.00,weatherlink.com 1.10,2013-04-14 18:58:00,
2013-04-14 15:13:00,58.5,34.0,30.07,NNE,22,3.0,4.0,40,0.00,,,0.00,weatherlink.com 1.10,2013-04-14 19:13:00,
2013-04-14 15:28:00,58.6,34.0,30.07,WNW,300,2.0,7.0,40,0.00,,,0.00,weatherlink.com 1.10,2013-04-14 19:28:00,
2013-04-14 15:43:00,59.1,33.0,30.07,WNW,298,2.0,6.0,38,0.00,,,0.00,weatherlink.com 1.10,2013-04-14 19:43:00,
2013-04-14 15:58:00,59.4,33.0,30.05,WNW,294,1.0,3.0,37,0.00,,,0.00,weatherlink.com 1.10,2013-04-14 19:58:00,
2013-04-14 16:13:00,59.2,33.0,30.05,ENE,68,2.0,5.0,38,0.00,,,0.00,weatherlink.com 1.10,2013-04-14 20:13:00,
2013-04-14 16:28:00,60.3,34.0,30.05,ESE,113,1.0,4.0,38,0.00,,,0.00,weatherlink.com 1.10,2013-04-14 20:28:00,
2013-04-14 16:43:00,60.4,35.0,30.05,West,281,3.0,5.0,39,0.00,,,0.00,weatherlink.com 1.10,2013-04-14 20:43:00,
2013-04-14 16:58:00,60.8,33.0,30.05,NNE,19,1.0,2.0,36,0.00,,,0.00,weatherlink.com 1.10,2013-04-14 20:58:00,
2013-04-14 17:13:00,60.6,34.0,30.05,East,82,1.0,2.0,37,0.00,,,0.00,weatherlink.com 1.10,2013-04-14 21:13:00,
2013-04-14 17:28:00,60.3,35.0,30.05,NE,41,1.0,2.0,39,0.00,,,0.00,weatherlink.com 1.10,2013-04-14 21:28:00,
2013-04-14 17:43:00,60.4,34.0,30.06,NNW,342,0.0,4.0,38,0.00,,,0.00,weatherlink.com 1.10,2013-04-14 21:43:00,
2013-04-14 17:58:00,60.6,35.0,30.06,ENE,71,1.0,2.0,38,0.00,,,0.00,weatherlink.com 1.10,2013-04-14 21:58:00,
2013-04-14 18:13:00,60.1,35.0,30.05,ENE,65,2.0,3.0,39,0.00,,,0.00,weatherlink.com 1.10,2013-04-14 22:13:00,
2013-04-14 18:28:00,60.3,34.0,30.05,NE,46,0.0,1.0,38,0.00,,,0.00,weatherlink.com 1.10,2013-04-14 22:28:00,
2013-04-14 18:43:00,59.6,35.0,30.05,NNE,12,0.0,3.0,40,0.00,,,0.00,weatherlink.com 1.10,2013-04-14 22:43:00,
2013-04-14 18:58:00,59.2,35.0,30.05,NE,53,1.0,1.0,41,0.00,,,0.00,weatherlink.com 1.10,2013-04-14 22:58:00,
2013-04-14 19:13:00,58.7,38.0,30.05,NE,42,0.0,0.0,46,0.00,,,0.00,weatherlink.com 1.10,2013-04-14 23:13:00,
2013-04-14 19:28:00,58.0,38.0,30.05,NNE,33,0.0,0.0,48,0.00,,,0.00,weatherlink.com 1.10,2013-04-14 23:28:00,
2013-04-14 19:43:00,56.7,40.0,30.05,NNE,33,0.0,0.0,54,0.00,,,0.00,weatherlink.com 1.10,2013-04-14 23:43:00,
2013-04-14 19:58:00,55.1,41.0,30.05,NNE,33,0.0,0.0,59,0.00,,,0.00,weatherlink.com 1.10,2013-04-14 23:58:00,
2013-04-14 20:13:00,54.1,41.0,30.04,NNE,32,0.0,0.0,61,0.00,,,0.00,weatherlink.com 1.10,2013-04-15 00:13:00,
2013-04-14 20:28:00,53.7,42.0,30.04,NNE,33,0.0,0.0,64,0.00,,,0.00,weatherlink.com 1.10,2013-04-15 00:28:00,
2013-04-14 20:43:00,53.7,38.0,30.05,ENE,77,0.0,1.0,55,0.00,,,0.00,weatherlink.com 1.10,2013-04-15 00:43:00,
2013-04-14 20:58:00,53.9,37.0,30.05,ENE,61,0.0,0.0,54,0.00,,,0.00,weatherlink.com 1.10,2013-04-15 00:58:00,
2013-04-14 21:13:00,53.5,37.0,30.06,NE,53,0.0,1.0,54,0.00,,,0.00,weatherlink.com 1.10,2013-04-15 01:13:00,
2013-04-14 21:28:00,53.2,39.0,30.06,NE,54,0.0,0.0,59,0.00,,,0.00,weatherlink.com 1.10,2013-04-15 01:28:00,
2013-04-14 21:43:00,52.8,38.0,30.05,NE,56,0.0,1.0,58,0.00,,,0.00,weatherlink.com 1.10,2013-04-15 01:43:00,
2013-04-14 21:58:00,53.5,38.0,30.05,ENE,71,0.0,2.0,56,0.00,,,0.00,weatherlink.com 1.10,2013-04-15 01:58:00,
2013-04-14 22:13:00,53.4,38.0,30.05,ENE,75,0.0,1.0,56,0.00,,,0.00,weatherlink.com 1.10,2013-04-15 02:13:00,
2013-04-14 22:28:00,53.9,38.0,30.05,North,11,0.0,2.0,55,0.00,,,0.00,weatherlink.com 1.10,2013-04-15 02:28:00,
2013-04-14 22:43:00,54.0,38.0,30.04,NNE,16,0.0,2.0,55,0.00,,,0.00,weatherlink.com 1.10,2013-04-15 02:43:00,
2013-04-14 22:58:00,54.0,38.0,30.04,NNE,16,1.0,1.0,55,0.00,,,0.00,weatherlink.com 1.10,2013-04-15 02:58:00,
2013-04-14 23:13:00,54.1,39.0,30.03,NNE,17,0.0,2.0,56,0.00,,,0.00,weatherlink.com 1.10,2013-04-15 03:13:00,
2013-04-14 23:28:00,53.9,38.0,30.02,NNE,17,0.0,1.0,55,0.00,,,0.00,weatherlink.com 1.10,2013-04-15 03:28:00,
2013-04-14 23:43:00,53.9,39.0,30.03,NNE,18,0.0,0.0,57,0.00,,,0.00,weatherlink.com 1.10,2013-04-15 03:43:00,
2013-04-14 23:58:00,53.8,39.0,30.03,WSW,245,0.0,1.0,58,0.00,,,0.00,weatherlink.com 1.10,2013-04-15 03:58:00,